FW4376 Weather Reports


time (UTC)temp
C
wind
direction
speed
KPH
gust
KPH
rain 1hr
cm
rain 24hr
cm
rain mn
cm
humidity
%
barometer
mb
20260506033015 21 128 0.0 3.2 0.00 0.10 0.10 80 1007.8
20260506031517 21 307 1.6 6.4 0.00 0.10 0.10 79 1007.8
20260506030012 21 42 0.0 8.0 0.00 0.10 0.10 79 1007.4
20260506024509 22 79 3.2 12.9 0.00 0.10 0.10 78 1006.8
20260506023007 22 103 0.0 3.2 0.00 0.10 0.10 81 1005.9
20260506021507 23 1 0.0 3.2 0.00 0.10 0.10 80 1006.2
20260506020005 23 84 0.0 3.2 0.00 0.10 0.10 80 1005.9
20260506014510 23 49 0.0 1.6 0.00 0.10 0.10 80 1005.6
20260506013005 25 23 1.6 9.7 0.08 0.10 0.10 82 1005.7
20260506011504 25 240 0.0 3.2 0.10 0.10 0.10 86 1004.9
20260506010003 25 122 0.0 3.2 0.10 0.10 0.10 86 1004.7
20260506004503 26 240 0.0 6.4 0.10 0.10 0.10 84 1004.9
20260506003003 26 204 0.0 11.3 0.03 0.03 0.03 81 1004.7
20260506001502 27 215 1.6 12.9 0.00 0.00 0.00 77 1004.4
20260506000002 27 226 4.8 9.7 0.00 0.00 0.00 74 1003.7
20260505234502 28 175 3.2 8.0 0.00 0.00 0.00 74 1003.7
20260505233101 28 244 4.8 17.7 0.00 0.00 0.00 72 1003.7
20260505233001 28 123 4.8 17.7 0.00 0.00 0.00 72 1003.7
20260505231601 29 181 3.2 9.7 0.00 0.00 0.00 71 1003.7
20260505230058 30 224 1.6 19.3 0.00 0.00 0.00 69 1003.5
20260505224558 30 112 4.8 20.9 0.00 0.00 0.00 68 1003.7
20260505223156 30 44 4.8 14.5 0.00 0.00 0.00 67 1003.3
20260505221608 31 288 3.2 9.7 0.00 0.00 0.00 66 1003.5
20260505220137 31 148 3.2 12.9 0.00 0.00 0.00 66 1003.4
20260505214614 31 91 4.8 12.9 0.00 0.00 0.00 66 1003.7
20260505213051 31 233 6.4 16.1 0.00 0.00 0.00 66 1003.7
20260505211606 31 98 4.8 20.9 0.00 0.00 0.00 66 1003.7
20260505210047 31 241 6.4 17.7 0.00 0.00 0.00 66 1003.8
20260505204546 30 248 6.4 17.7 0.00 0.00 0.00 66 1004.2
20260505203046 30 269 3.2 20.9 0.00 0.00 0.00 68 1004.2
20260505201543 29 262 4.8 20.9 0.00 0.00 0.00 68 1004.3
20260505200046 30 252 6.4 14.5 0.00 0.00 0.00 68 1004.4
20260505194539 29 243 8.0 19.3 0.00 0.00 0.00 70 1004.6
20260505193037 28 101 6.4 24.1 0.00 0.00 0.00 70 1004.5
20260505191534 28 186 4.8 20.9 0.00 0.00 0.00 72 1004.6
20260505190034 27 248 9.7 20.9 0.00 0.00 0.00 71 1004.8
20260505184531 27 252 9.7 24.1 0.00 0.00 0.00 72 1004.9
20260505183042 27 263 4.8 14.5 0.00 0.00 0.00 72 1004.9
20260505181530 28 229 8.0 20.9 0.00 0.00 0.00 71 1005.0
20260505180027 27 151 4.8 20.9 0.00 0.00 0.00 72 1005.1
20260505174526 27 247 9.7 19.3 0.00 0.00 0.00 72 1005.1
20260505173025 27 238 9.7 22.5 0.00 0.00 0.00 73 1005.1
20260505171522 27 53 6.4 20.9 0.00 0.00 0.00 73 1005.5
20260505170022 26 300 9.7 35.4 0.00 0.00 0.00 74 1005.4
20260505164519 26 231 8.0 24.1 0.00 0.00 0.00 74 1005.3
20260505163016 26 117 8.0 24.1 0.00 0.00 0.00 75 1005.2
20260505161515 25 231 11.3 24.1 0.00 0.00 0.00 76 1005.0
20260505153006 24 276 6.4 20.9 0.00 0.00 0.00 80 1005.3
20260505151509 23 240 8.0 25.7 0.00 0.00 0.00 80 1005.3
20260505124556 21 141 3.2 16.1 0.00 0.00 0.00 86 1004.8
20260505123046 21 129 6.4 22.5 0.00 0.00 0.00 86 1004.6
20260505121547 21 80 4.8 17.7 0.00 0.00 0.00 86 1004.6
20260505120049 21 302 8.0 17.7 0.00 0.00 0.00 86 1004.5
20260505114545 21 104 4.8 16.1 0.00 0.00 0.00 86 1004.3
20260505113040 21 265 4.8 19.3 0.00 0.00 0.00 86 1004.0
20260505111539 21 233 4.8 16.1 0.00 0.00 0.00 86 1004.2
20260505101542 21 227 6.4 16.1 0.00 0.00 0.00 86 1004.2
20260505100033 21 110 4.8 16.1 0.00 0.00 0.00 86 1004.5
20260505094532 21 225 4.8 14.5 0.00 0.00 0.00 86 1004.6
20260505093031 21 137 6.4 20.9 0.00 0.00 0.00 85 1004.8
20260505091530 21 259 6.4 22.5 0.00 0.00 0.00 86 1004.6
20260505090028 21 257 8.0 20.9 0.00 0.00 0.00 86 1004.6
20260505084535 21 353 4.8 16.1 0.00 0.00 0.00 85 1004.5
20260505083027 21 255 8.0 22.5 0.00 0.00 0.00 85 1004.6
20260505081523 21 231 4.8 17.7 0.00 0.00 0.00 85 1004.6
20260505080021 21 154 6.4 16.1 0.00 0.00 0.00 85 1004.8
20260505074518 21 230 6.4 20.9 0.00 0.00 0.00 85 1005.0
20260505073025 21 200 4.8 20.9 0.00 0.00 0.00 84 1005.4
20260505071514 21 110 4.8 20.9 0.00 0.00 0.00 84 1005.6
20260505070017 21 84 4.8 22.5 0.00 0.00 0.00 83 1005.8
20260505064510 21 242 6.4 20.9 0.00 0.00 0.00 83 1005.6
20260505063011 21 178 6.4 16.1 0.00 0.00 0.00 82 1005.8
20260505061507 21 207 6.4 24.1 0.00 0.00 0.00 81 1005.9
20260505060007 21 127 3.2 20.9 0.00 0.00 0.00 81 1006.1
20260505054503 21 264 8.0 22.5 0.00 0.00 0.00 81 1006.1
20260505053002 22 142 4.8 17.7 0.00 0.00 0.00 80 1006.2
20260505051600 22 57 3.2 17.7 0.00 0.00 0.00 80 1006.4
20260505041559 22 158 3.2 9.7 0.00 0.00 0.00 78 1006.7
20260505040056 22 96 3.2 9.7 0.00 0.00 0.00 77 1006.6
20260505034553 22 154 3.2 8.0 0.00 0.00 0.00 77 1006.7